NOAA NWS Hourly Roundups by Site

Regional Weather Roundup for Omaha, NE

To Select Another Site Choose from List

Select Site:  

000
ASUS43 KOAX 051710
RWRNE

WEATHER ROUNDUP FOR NEBRASKA
NATIONAL WEATHER SERVICE OMAHA NE
1100 AM CST SAT DEC 05 2020

NOTES: SATELLITE DATA IS BEING USED TO AUGMENT CLOUD COVER ABOVE
       12000 FEET.
       "FAIR" INDICATES FEW OR NO CLOUDS BELOW 12,000 FEET WITH NO
       SIGNIFICANT WEATHER AND/OR OBSTRUCTIONS TO VISIBILITY.


NEZ001>004-019>022-054>056-051800-
NEBRASKA PANHANDLE

CITY           SKY/WX    TMP DP  RH WIND       PRES   REMARKS
SCOTTSBLUFF    SUNNY     41  16  36 W14       30.41F
ALLIANCE       SUNNY     43  21  41 W7        30.37S
CHADRON        SUNNY     43  18  36 W12       30.40R
GORDON         FAIR      44  19  35 NW7       30.37R
KIMBALL        SUNNY     47  15  27 N13       30.41S
SIDNEY         SUNNY     45  17  32 NW15      30.39S
$$

NEZ057>060-069>072-079>082-051800-
SOUTHWEST NEBRASKA

CITY           SKY/WX    TMP DP  RH WIND       PRES   REMARKS
NORTH PLATTE   SUNNY     51  25  36 NW13G20   30.34S
IMPERIAL       SUNNY     47  21  35 NW14      30.37S
LEXINGTON      SUNNY     49  25  38 N14       30.31S
MCCOOK         SUNNY     49  23  36 N16       30.34R
OGALLALA       SUNNY     45  19  34 NW15      30.37R
$$

NEZ005>010-023>029-035>040-094-051800-
NORTH CENTRAL NEBRASKA

CITY           SKY/WX    TMP DP  RH WIND       PRES   REMARKS
VALENTINE      SUNNY     48  24  39 NW10      30.32F
AINSWORTH      SUNNY     44  24  45 NW13      30.32S
BROKEN BOW     SUNNY     48  25  40 NW18G31   30.28F
O`NEILL        SUNNY     44  27  51 NW12      30.29S
ORD            SUNNY     43  26  51 NW15      30.27F
THEDFORD       SUNNY     47  26  42 NW13      30.35R
$$

NEZ041-046>049-061>064-073>077-083>087-051800-
SOUTH CENTRAL NEBRASKA

CITY           SKY/WX    TMP DP  RH WIND       PRES   REMARKS
GRAND ISLAND   SUNNY     45  27  49 N15       30.29R
AURORA         SUNNY     44  29  55 N18G24    30.27S
HASTINGS       SUNNY     44  27  51 N21       30.28R
HEBRON         SUNNY     43  28  54 N16G22    30.27S
HOLDREGE       SUNNY     46  26  46 NW9       30.30S
KEARNEY        SUNNY     46  25  43 N17       30.29S
YORK           SUNNY     41  28  60 N16G23    30.25F
$$

NEZ011>018-030>034-042>045-051800-
NORTHEAST NEBRASKA

CITY           SKY/WX    TMP DP  RH WIND       PRES   REMARKS
NORFOLK        MOSUNNY   41  26  55 N10       30.24F
ALBION         SUNNY     43  28  55 N16G25    30.25S
BLAIR          SUNNY     37  28  70 NW10      30.22R WCI  30
COLUMBUS       SUNNY     40  28  62 NW13      30.26S WCI  32
FREMONT        SUNNY     40  28  62 NW16      30.24R WCI  32
TEKAMAH        MOSUNNY   41  29  62 N13       30.23R
WAYNE          SUNNY     38  28  67 NW13      30.24S WCI  30
$$

NEZ050>053-065>068-078-088>093-051800-
SOUTHEAST NEBRASKA

CITY           SKY/WX    TMP DP  RH WIND       PRES   REMARKS
LINCOLN        SUNNY     42  26  53 N15       30.25F
OMAHA EPPLEY   PTSUNNY   37  27  67 N10       30.22S WCI  30
BEATRICE       SUNNY     42  28  57 N12G18    30.25R
FALLS CITY     SUNNY     41  29  62 NW10      30.21S
NEBRASKA CITY  SUNNY     41  30  64 N14       30.22F
PLATTSMOUTH    SUNNY     38  28  66 NW10      30.21F WCI  31
$$

NEZ044-045-051>053-067-051800-
OMAHA AREA

CITY           SKY/WX    TMP DP  RH WIND       PRES   REMARKS
OMAHA EPPLEY   PTSUNNY   37  27  67 N10       30.22S WCI  30
BLAIR          SUNNY     37  28  70 NW10      30.22R WCI  30
FREMONT        SUNNY     40  28  62 NW16      30.24R WCI  32
MILLARD        SUNNY     39  28  63 NW8       30.23F WCI  34
OFFUTT AFB     SUNNY     39  26  59 NW9       30.21F WCI  33
PLATTSMOUTH    SUNNY     38  28  66 NW10      30.21F WCI  31
WAHOO          FAIR      41  29  61 N17G23    30.24S
$$


 

View Past Reports for Omaha, NE.

Products Courtesy of NOAA-NWS
NWS Information Parsing Script by Ken True at Saratoga Weather - Script by SE Lincoln Weather.